MLMN1TS TNCM-TFFR

Flight info

Callsign MLMN1TS
Flight time 0h 31m
Altitude 23000
Route MODOR2 ZPATA A517 BIMBO BIMBO2Z
Aircraft B737/M-SDE2E3FGHIRWXY/LB1

Departure

Time 2026-04-20 13:00
Airport Princess Juliana International Airport (TNCM)

Arrival

Time 2026-04-20 13:31
Airport Maryse Condé International Airport (TFFR)
Time Latitude Longitude Altitude Speed Heading
2026-04-20 12:36 18.04230 -63.11583 22 ft 0 kts 320°
2026-04-20 12:36 18.04235 -63.11587 21 ft 0 kts 320°
2026-04-20 12:53 18.04219 -63.11574 20 ft 4 kts 320°
2026-04-20 12:53 18.04202 -63.11559 23 ft 4 kts 319°
2026-04-20 12:53 18.04187 -63.11539 20 ft 4 kts 277°
2026-04-20 12:54 18.04192 -63.11514 20 ft 4 kts 233°
2026-04-20 12:54 18.04207 -63.11494 22 ft 2 kts 231°
2026-04-20 12:54 18.04208 -63.11492 22 ft 0 kts 232°
2026-04-20 12:57 18.04201 -63.11502 23 ft 5 kts 231°
2026-04-20 12:57 18.04176 -63.11535 22 ft 11 kts 231°
2026-04-20 12:58 18.04125 -63.11601 20 ft 12 kts 229°
2026-04-20 12:58 18.04073 -63.11669 21 ft 12 kts 240°
2026-04-20 12:58 18.04052 -63.11769 21 ft 16 kts 261°
2026-04-20 12:58 18.04031 -63.11897 20 ft 18 kts 246°
2026-04-20 12:59 18.03948 -63.11925 22 ft 16 kts 98°
2026-04-20 12:59 18.03964 -63.11803 21 ft 25 kts 81°
2026-04-20 12:59 18.04032 -63.11329 19 ft 105 kts 81°
2026-04-20 12:59 18.04169 -63.10361 244 ft 147 kts 82°
2026-04-20 13:00 18.04299 -63.09321 1134 ft 142 kts 83°
2026-04-20 13:00 18.04005 -63.08261 1729 ft 170 kts 133°
2026-04-20 13:00 18.02786 -63.07724 2136 ft 219 kts 173°
2026-04-20 13:00 18.01152 -63.07875 2453 ft 252 kts 181°
2026-04-20 13:01 17.99340 -63.08016 3164 ft 265 kts 179°
2026-04-20 13:01 17.97515 -63.08112 4332 ft 263 kts 178°
2026-04-20 13:01 17.95656 -63.08171 5288 ft 270 kts 177°
2026-04-20 13:01 17.93750 -63.08196 6280 ft 277 kts 177°
2026-04-20 13:02 17.91806 -63.08203 7299 ft 281 kts 177°
2026-04-20 13:02 17.89853 -63.08200 8305 ft 289 kts 177°
2026-04-20 13:02 17.87811 -63.08193 9330 ft 297 kts 177°
2026-04-20 13:02 17.85763 -63.07915 10314 ft 299 kts 155°
2026-04-20 13:03 17.84015 -63.06700 11017 ft 310 kts 130°
2026-04-20 13:03 17.82529 -63.05006 11839 ft 323 kts 138°
2026-04-20 13:03 17.80616 -63.03703 12765 ft 332 kts 149°
2026-04-20 13:03 17.78585 -63.02503 13796 ft 338 kts 150°
2026-04-20 13:04 17.76516 -63.01288 14707 ft 344 kts 150°
2026-04-20 13:04 17.74420 -63.00040 15634 ft 350 kts 150°
2026-04-20 13:04 17.72278 -62.98746 16437 ft 361 kts 149°
2026-04-20 13:04 17.70097 -62.97413 17396 ft 366 kts 149°
2026-04-20 13:05 17.67881 -62.96048 18323 ft 372 kts 149°
2026-04-20 13:05 17.65627 -62.94654 19095 ft 380 kts 149°
2026-04-20 13:05 17.63362 -62.93251 19862 ft 385 kts 150°
2026-04-20 13:05 17.61039 -62.91810 20667 ft 391 kts 150°
2026-04-20 13:06 17.58693 -62.90356 21613 ft 392 kts 150°
2026-04-20 13:06 17.56347 -62.88903 22577 ft 393 kts 150°
2026-04-20 13:06 17.53981 -62.87437 22961 ft 395 kts 150°
2026-04-20 13:06 17.51612 -62.85970 23076 ft 397 kts 150°
2026-04-20 13:07 17.49234 -62.84499 23075 ft 394 kts 150°
2026-04-20 13:07 17.46868 -62.83048 23086 ft 393 kts 152°
2026-04-20 13:07 17.44432 -62.81746 23081 ft 393 kts 156°
2026-04-20 13:07 17.41955 -62.80541 23083 ft 392 kts 157°
2026-04-20 13:08 17.39474 -62.79353 23087 ft 393 kts 156°
2026-04-20 13:08 17.36995 -62.78143 23082 ft 393 kts 156°
2026-04-20 13:08 17.34514 -62.76912 23074 ft 394 kts 156°
2026-04-20 13:08 17.32073 -62.75697 23028 ft 393 kts 156°
2026-04-20 13:09 17.29714 -62.74270 23085 ft 392 kts 144°
2026-04-20 13:09 17.27669 -62.72383 23069 ft 393 kts 132°
2026-04-20 13:09 17.25848 -62.70252 23081 ft 393 kts 130°
2026-04-20 13:09 17.24049 -62.68096 23079 ft 394 kts 130°
2026-04-20 13:10 17.22243 -62.65925 23055 ft 395 kts 130°
2026-04-20 13:10 17.20436 -62.63761 23049 ft 396 kts 130°
2026-04-20 13:10 17.18619 -62.61598 23057 ft 396 kts 130°
2026-04-20 13:10 17.16794 -62.59436 23055 ft 397 kts 131°
2026-04-20 13:11 17.14965 -62.57274 23053 ft 397 kts 131°
2026-04-20 13:11 17.13133 -62.55114 23052 ft 397 kts 131°
2026-04-20 13:11 17.11302 -62.52959 23045 ft 396 kts 131°
2026-04-20 13:11 17.09473 -62.50807 23054 ft 395 kts 131°
2026-04-20 13:12 17.07644 -62.48657 23048 ft 395 kts 131°
2026-04-20 13:12 17.05842 -62.46538 23046 ft 395 kts 131°
2026-04-20 13:12 17.04032 -62.44410 22733 ft 398 kts 131°
2026-04-20 13:12 17.02188 -62.42244 22239 ft 399 kts 131°
2026-04-20 13:13 17.00346 -62.40080 21747 ft 396 kts 131°
2026-04-20 13:13 16.98524 -62.37940 21261 ft 393 kts 131°
2026-04-20 13:13 16.96716 -62.35818 20778 ft 389 kts 131°
2026-04-20 13:13 16.94921 -62.33712 20303 ft 386 kts 131°
2026-04-20 13:14 16.93141 -62.31623 19810 ft 383 kts 131°
2026-04-20 13:14 16.91375 -62.29552 19332 ft 380 kts 131°
2026-04-20 13:14 16.89619 -62.27493 18841 ft 378 kts 131°
2026-04-20 13:14 16.87877 -62.25450 18364 ft 376 kts 131°
2026-04-20 13:15 16.86141 -62.23417 17800 ft 373 kts 131°
2026-04-20 13:15 16.84423 -62.21404 17307 ft 369 kts 131°
2026-04-20 13:15 16.82722 -62.19412 16797 ft 366 kts 131°
2026-04-20 13:15 16.81034 -62.17436 16320 ft 363 kts 131°
2026-04-20 13:16 16.79362 -62.15478 15850 ft 359 kts 131°
2026-04-20 13:16 16.77710 -62.13546 15377 ft 355 kts 131°
2026-04-20 13:16 16.76069 -62.11626 14900 ft 353 kts 130°
2026-04-20 13:16 16.74445 -62.09726 14437 ft 349 kts 130°
2026-04-20 13:17 16.72853 -62.07864 13970 ft 346 kts 130°
2026-04-20 13:17 16.71253 -62.05993 13439 ft 344 kts 130°
2026-04-20 13:17 16.69666 -62.04139 12941 ft 340 kts 130°
2026-04-20 13:17 16.68101 -62.02310 12466 ft 335 kts 130°
2026-04-20 13:18 16.66557 -62.00507 11994 ft 331 kts 130°
2026-04-20 13:18 16.65034 -61.98729 11535 ft 327 kts 130°
2026-04-20 13:18 16.63481 -61.97018 11055 ft 325 kts 138°
2026-04-20 13:18 16.61477 -61.95930 10709 ft 323 kts 162°
2026-04-20 13:19 16.59291 -61.95516 10350 ft 318 kts 170°
2026-04-20 13:19 16.57124 -61.95306 10195 ft 306 kts 172°
2026-04-20 13:19 16.55038 -61.95137 9981 ft 296 kts 173°
2026-04-20 13:19 16.53016 -61.94965 9576 ft 294 kts 172°
2026-04-20 13:20 16.50987 -61.94780 9184 ft 291 kts 173°
2026-04-20 13:20 16.48981 -61.94588 8801 ft 288 kts 173°
2026-04-20 13:20 16.46991 -61.94392 8398 ft 287 kts 171°
2026-04-20 13:20 16.45014 -61.94194 8015 ft 285 kts 171°
2026-04-20 13:21 16.43045 -61.93994 7635 ft 283 kts 171°
2026-04-20 13:21 16.41096 -61.93795 7275 ft 280 kts 172°
2026-04-20 13:21 16.39164 -61.93599 6912 ft 278 kts 171°
2026-04-20 13:21 16.37246 -61.93403 6561 ft 276 kts 171°
2026-04-20 13:22 16.35413 -61.92940 6161 ft 270 kts 149°
2026-04-20 13:22 16.34040 -61.91689 5879 ft 258 kts 122°
2026-04-20 13:22 16.33302 -61.90064 5783 ft 241 kts 102°
2026-04-20 13:22 16.32977 -61.88401 5695 ft 229 kts 99°
2026-04-20 13:23 16.32697 -61.86805 5598 ft 218 kts 98°
2026-04-20 13:23 16.32431 -61.85289 5509 ft 208 kts 98°
2026-04-20 13:23 16.32174 -61.83854 5450 ft 196 kts 99°
2026-04-20 13:23 16.31933 -61.82486 5323 ft 188 kts 97°
2026-04-20 13:24 16.31697 -61.81168 5135 ft 182 kts 98°
2026-04-20 13:24 16.31467 -61.79910 4923 ft 176 kts 98°
2026-04-20 13:24 16.31239 -61.78672 4732 ft 173 kts 98°
2026-04-20 13:24 16.31016 -61.77469 4501 ft 165 kts 97°
2026-04-20 13:25 16.30800 -61.76309 4294 ft 164 kts 97°
2026-04-20 13:25 16.30579 -61.75105 4071 ft 176 kts 98°
2026-04-20 13:25 16.30353 -61.73870 3818 ft 171 kts 99°
2026-04-20 13:25 16.30131 -61.72682 3618 ft 167 kts 98°
2026-04-20 13:26 16.29912 -61.71506 3389 ft 166 kts 98°
2026-04-20 13:26 16.29697 -61.70336 3163 ft 164 kts 98°
2026-04-20 13:26 16.29481 -61.69171 2916 ft 163 kts 98°
2026-04-20 13:26 16.29269 -61.68028 2705 ft 158 kts 98°
2026-04-20 13:27 16.29064 -61.66916 2476 ft 154 kts 98°
2026-04-20 13:27 16.28866 -61.65848 2284 ft 145 kts 97°
2026-04-20 13:27 16.28680 -61.64843 2099 ft 137 kts 96°
2026-04-20 13:27 16.28508 -61.63915 1896 ft 126 kts 95°
2026-04-20 13:28 16.28349 -61.63047 1726 ft 121 kts 98°
2026-04-20 13:28 16.28191 -61.62187 1546 ft 120 kts 98°
2026-04-20 13:28 16.28035 -61.61345 1392 ft 118 kts 98°
2026-04-20 13:28 16.27885 -61.60533 1223 ft 115 kts 97°
2026-04-20 13:29 16.27735 -61.59713 1084 ft 116 kts 96°
2026-04-20 13:29 16.27580 -61.58875 920 ft 121 kts 98°
2026-04-20 13:29 16.27417 -61.57988 776 ft 126 kts 99°
2026-04-20 13:29 16.27256 -61.57119 575 ft 120 kts 99°
2026-04-20 13:30 16.27079 -61.56304 422 ft 114 kts 99°
2026-04-20 13:30 16.26975 -61.55475 311 ft 116 kts 97°
2026-04-20 13:30 16.26809 -61.54660 95 ft 114 kts 101°
2026-04-20 13:30 16.26649 -61.53874 34 ft 106 kts 94°
2026-04-20 13:31 16.26532 -61.53185 20 ft 80 kts 102°
2026-04-20 13:31 16.26460 -61.52774 20 ft 36 kts 99°
2026-04-20 13:31 16.26419 -61.52564 19 ft 26 kts 104°
2026-04-20 13:31 16.26383 -61.52385 24 ft 24 kts 101°
2026-04-20 13:32 16.26413 -61.52237 27 ft 23 kts 20°
2026-04-20 13:32 16.26570 -61.52204 20 ft 24 kts 10°
2026-04-20 13:32 16.26721 -61.52212 22 ft 23 kts 312°
2026-04-20 13:32 16.26755 -61.52368 20 ft 22 kts 282°
2026-04-20 13:33 16.26774 -61.52460 20 ft 10 kts 285°
2026-04-20 13:33 16.26812 -61.52471 22 ft 6 kts 22°
2026-04-20 13:33 16.26851 -61.52461 20 ft 6 kts 12°
2026-04-20 13:33 16.26871 -61.52456 20 ft 0 kts 13°
2026-04-20 13:34 16.26872 -61.52456 20 ft 0 kts 13°